#timestamp,LO_Frequency,Hit,StdDev 
1511118015.6,286047019.5,Y
1511118035.4,286047001.3,P
1511118055.2,286047003.6,N
1511118075.0,286047005.3,N
1511118076.0,286047005.3,N
1511118095.8,286047006.9,N
1511118115.6,286047012.4,N
1511118135.4,286047008.0,N
1511118155.3,286047011.6,N
1511118175.1,286047011.2,N
1511118195.8,286047009.8,N
1511118215.7,286047011.1,N
1511118235.5,286047010.6,N
1511118255.3,286047008.6,N
1511118275.2,286047005.0,N
1511118295.9,286047003.3,N
1511118315.7,286047001.1,N
1511118335.6,286047001.6,N
1511118355.4,286047002.6,N
1511118375.2,286047008.0,N
1511118395.0,286047006.9,N
1511118395.9,286047006.9,N
1511118415.8,286047006.2,N
1511118435.6,286047008.2,N
1511118455.4,286047009.8,N
1511118475.3,286047009.4,N
1511118495.1,286047011.3,Y
1511118515.8,286047007.4,P
1511118535.7,286047006.0,P
1511118555.5,286047002.2,P
1511118575.3,286047000.5,N
1511118595.2,286047004.2,N
1511118615.9,286047002.2,N
1511118635.7,286047007.5,N
1511118655.6,286047004.4,N
1511118675.4,286047007.9,Y
1511118695.2,286047004.3,P
1511118715.1,286046999.0,P
1511118716.0,286046999.0,N
1511118735.8,286046998.7,N
1511118755.6,286046999.9,N
1511118775.5,286047004.0,N
1511118795.3,286047005.7,N
1511118815.1,286047003.0,N
1511118835.8,286047006.0,N
1511118855.7,286047011.6,Y
1511118875.5,286047007.9,P
1511118895.3,286047006.2,N
1511118915.2,286047006.7,N
1511118935.0,286047006.6,Y
1511118935.9,286047006.6,P
1511118955.8,286046998.5,P
1511118975.6,286046997.5,N
1511118995.4,286047000.9,N
1511119015.2,286047003.7,N
1511119035.1,286047005.6,N
1511119036.0,286047005.6,N
1511119055.8,286047003.8,N
1511119075.6,286047004.0,N
1511119095.5,286047003.6,N
1511119115.3,286047004.3,N
1511119135.1,286046995.4,N
1511119155.9,286046993.8,N
1511119175.7,286046995.8,N
1511119195.5,286046995.1,N
1511119215.4,286046994.1,N
1511119235.2,286046985.4,Y
1511119255.0,286046978.9,P
1511119255.9,286046978.9,N
1511119275.8,286046978.2,N
1511119295.6,286046977.3,N
1511119315.4,286046978.9,N
1511119335.3,286046985.0,N
1511119355.1,286046982.3,N
1511119356.0,286046982.3,N
1511119375.8,286046980.2,N
1511119395.7,286046980.2,Y
1511119415.5,286047001.2,P
1511119435.3,286046999.6,N
1511119455.2,286046996.4,N
1511119475.9,286046991.8,N
1511119495.7,286046987.2,N
1511119515.5,286046985.8,N
1511119535.4,286046987.3,N
1511119555.2,286046991.1,N
1511119575.0,286046993.8,N
1511119575.9,286046993.8,N
1511119595.8,286046992.7,N
1511119615.6,286046992.6,N
1511119635.4,286046992.8,N
1511119655.3,286046993.1,N
1511119675.1,286046991.3,N
1511119676.0,286046991.3,N
1511119695.8,286046993.0,N
1511119715.7,286046994.4,N
1511119735.5,286046994.0,N
1511119755.3,286046992.0,N
1511119775.2,286046994.0,N
1511119795.9,286046993.5,N
1511119815.7,286046998.0,N
1511119835.5,286046995.6,N
1511119855.4,286046996.7,N
1511119875.2,286046996.1,N
1511119895.0,286046994.0,N
1511119895.9,286046994.0,N
1511119915.8,286046995.3,N
1511119935.6,286047000.5,N
1511119955.4,286046997.2,N
1511119975.3,286046997.1,N
1511119995.1,286047003.4,N
1511120015.8,286047009.2,N
1511120035.7,286047006.0,N
1511120055.5,286047004.7,N
1511120075.3,286047000.9,N
1511120095.2,286047001.5,N
1511120115.9,286047004.8,N
1511120135.7,286047007.7,N
1511120155.5,286047009.0,N
1511120175.4,286047007.9,N
1511120195.2,286047008.7,N
1511120215.0,286047005.7,N
1511120215.9,286047005.7,N
1511120235.8,286047001.5,N
1511120255.6,286047002.4,N
1511120275.4,286047003.1,N
1511120295.3,286047007.6,N
1511120315.1,286047009.2,N
1511120335.8,286047009.8,N
1511120355.7,286047007.3,N
1511120375.5,286047000.7,N
1511120395.3,286047001.9,N
1511120415.2,286046998.2,N
1511120435.9,286046993.7,N
1511120455.7,286046991.7,N
1511120475.6,286046996.2,N
1511120495.4,286046995.9,N
1511120515.2,286046990.4,N
1511120535.0,286046991.3,N
1511120536.0,286046991.3,N
1511120555.8,286046997.5,N
1511120575.6,286046995.4,N
1511120595.4,286047001.2,N
1511120615.3,286046997.9,N
1511120635.1,286046995.3,N
1511120655.8,286046999.9,N
1511120675.7,286047002.2,N
1511120695.5,286047002.5,N
1511120715.3,286047000.0,N
1511120735.2,286047000.2,N
1511120755.9,286046998.2,N
1511120775.7,286046998.0,N
1511120795.6,286046995.9,N
1511120815.4,286046995.0,N
1511120835.2,286046998.8,N
1511120855.0,286046998.6,N
1511120856.0,286046998.6,N
1511120875.8,286047002.7,N
1511120895.6,286047000.6,N
1511120915.4,286046997.5,N
1511120935.3,286047000.9,N
1511120955.1,286047000.3,N
1511120975.8,286046999.4,N
1511120995.7,286046997.5,N
1511121015.5,286046993.4,N
1511121035.3,286046995.9,N
1511121055.2,286046998.0,N
1511121075.9,286046994.6,N
1511121095.7,286046996.4,N
1511121115.6,286046995.2,N
1511121135.4,286046998.0,N
1511121155.2,286046995.5,N
1511121175.0,286046994.9,N
1511121176.0,286046994.9,N
1511121195.8,286046997.3,N
1511121215.6,286046996.8,N
1511121235.4,286047000.2,N
1511121255.3,286046997.5,N
1511121275.1,286047000.6,N
1511121295.8,286046998.5,N
1511121315.7,286046999.6,N
1511121335.5,286046999.8,N
1511121355.3,286046999.5,N
1511121375.2,286046998.4,N
1511121395.9,286046994.0,N
1511121415.7,286046995.7,N
1511121435.6,286046996.0,N
1511121455.4,286046995.3,N
1511121475.2,286046996.4,N
1511121495.1,286046994.7,N
1511121496.0,286046994.7,N
1511121515.8,286046994.0,N
1511121535.6,286046990.3,Y
1511121555.5,286046990.8,P
1511121575.3,286046988.7,P
1511121595.1,286046991.6,N
